Content
SEND FEEDBACK

Daily
Averages
Monthly
Summary
Canada

QUEBEC CITY, QUEBEC


Home > North America > Canada > Quebec
Elevation: 239 feet     Latitude: 46 48N     Longitude: 071 23W

WEATHER
 
SELECT A DAY
Number of Records: 195,813;   Date Range: 6/30/96 - 10/21/14
 
SHARE

PRINT THIS DATA

[ ← Previous Day ]
WEATHER ALMANAC - APRIL 4, 2013
[ Next Day → ]
[ °C ]   °F
Weather ElementAverageHighLow
Temperature31.9 °F41 °F (5:00 pm)21.2 °F (6:00 am)
Dewpoint15.9 °F32 °F (11:00 pm)6.8 °F (2:00 am)
Humidity49.4 %81 % (9:00 pm)29 % (2:00 pm)
Barometer30.01 in30.16 in (8:00 am)29.89 in (5:00 pm)
Wind Speed14.2 mph26.5 mph (4:00 pm)
Wind Gust35.7 mph (4:00 pm)
Weather ElementAverage
Visibility23.5 mi
Wind DirectionWSW (235.2 °)

Weather ElementTotal
Precipitation---
Heating Degree Days33.9 (Base 65)
Averaged from 31 records on April 4, 2013
WEATHER CONDITIONS BREAKOUT
WIND DIRECTION BREAKOUT
WEATHER BY HOUR - APRIL 4, 2013
[ °C ]   °F
Local TimeTemperatureDewpointHumidityBarometerVisibilityWind DirectionWind SpeedGust SpeedPrecipitationEventsConditions
1:00 AM26.6 °F8.6 °F47 %30.03 in15.0 miWest (270°)13.8 mphClear
2:00 AM26.0 °F7.0 °F30 %30.04 inWSW (250°)6.9 mph
2:00 AM24.8 °F6.8 °F46 %30.04 in15.0 miWest (260°)6.9 mphClear
3:00 AM24.8 °F6.8 °F46 %30.08 in15.0 miSSW (210°)9.2 mphClear
4:00 AM23.0 °F6.8 °F50 %30.10 in15.0 miSW (230°)11.5 mphClear
5:00 AM23.0 °F8.0 °F37 %30.11 inSSW (210°)6.9 mph
5:00 AM23.0 °F6.8 °F50 %30.12 in15.0 miSW (230°)12.7 mphClear
6:00 AM21.2 °F6.8 °F54 %30.13 in15.0 miWSW (240°)11.5 mphPartly Cloudy
7:00 AM23.0 °F8.6 °F54 %30.14 in30.0 miWSW (250°)15.0 mphPartly Cloudy
8:00 AM24.0 °F9.0 °F39 %30.15 inSW (230°)11.5 mph
8:00 AM24.8 °F8.6 °F50 %30.16 in30.0 miWSW (250°)12.7 mphMostly Cloudy
9:00 AM26.6 °F10.4 °F51 %30.14 in30.0 miWest (260°)13.8 mphOvercast
10:00 AM28.4 °F14.0 °F55 %30.12 in30.0 miSW (220°)16.1 mphMostly Cloudy
11:00 AM32.0 °F14.0 °F34 %30.07 inSW (230°)11.5 mph
11:00 AM32.0 °F12.2 °F44 %30.08 in30.0 miSW (230°)19.6 mphPartly Cloudy
12:00 PM35.6 °F14.0 °F41 %30.04 in30.0 miWSW (240°)18.4 mphScattered Clouds
1:00 PM39.2 °F15.8 °F39 %29.99 in30.0 miWSW (240°)21.9 mph29.9 mphMostly Cloudy
2:00 PM37.0 °F16.0 °F29 %29.95 inSW (230°)17.3 mph
2:00 PM39.2 °F15.8 °F39 %29.96 in30.0 miWSW (240°)23.0 mphOvercast
3:00 PM39.2 °F17.6 °F42 %29.93 in30.0 miSW (230°)23.0 mph31.1 mphMostly Cloudy
4:00 PM39.2 °F19.4 °F45 %29.91 in30.0 miWSW (250°)26.5 mph35.7 mphMostly Cloudy
5:00 PM40.0 °F22.0 °F35 %29.89 inSW (230°)15.0 mph
5:00 PM41.0 °F21.2 °F45 %29.90 in30.0 miWSW (240°)21.9 mph28.8 mphMostly Cloudy
6:00 PM39.2 °F21.2 °F49 %29.90 in30.0 miWSW (240°)17.3 mph28.8 mphMostly Cloudy
7:00 PM39.2 °F23.0 °F52 %29.90 in30.0 miWSW (250°)13.8 mphOvercast
8:00 PM38.0 °F25.0 °F47 %29.90 inSW (220°)6.9 mph
8:00 PM37.4 °F24.8 °F60 %29.91 in15.0 miSouth (190°)11.5 mph19.6 mphOvercast
9:00 PM35.6 °F30.2 °F81 %29.93 in15.0 miSW (220°)13.8 mph20.7 mphOvercast
10:00 PM35.6 °F30.2 °F81 %29.92 in15.0 miWSW (240°)8.1 mphOvercast
11:00 PM36.0 °F32.0 °F78 %29.89 inSW (230°)6.9 mph
11:00 PM35.6 °F30.2 °F81 %29.89 in15.0 miSW (230°)13.8 mph19.6 mphOvercast
Hourly data recorded from CYQB, located miles away from Quebec City, Quebec







STORIES FROM OUR PARTNERS